PLF162 EPPW-EPIR

Flight info

Callsign PLF162
Flight time 0h 16m
Altitude 0500
Route EPPWL DCT EPPWN DCT EPINM DCT EPINS
Aircraft H64/M-G/C

Departure

Time 2026-04-19 07:07
Airport Powidz Military Air Base (EPPW)

Arrival

Time 2026-04-19 07:24
Airport Inowroclaw Military Air Base (EPIR)
Time Latitude Longitude Altitude Speed Heading
2026-04-19 06:55 52.38862 17.82855 358 ft 0 kts 188°
2026-04-19 06:57 52.38861 17.82854 363 ft 1 kts 189°
2026-04-19 06:57 52.38859 17.82855 361 ft 0 kts 190°
2026-04-19 06:57 52.38847 17.82859 363 ft 5 kts 142°
2026-04-19 06:57 52.38834 17.82916 361 ft 6 kts 126°
2026-04-19 06:58 52.38801 17.82959 361 ft 7 kts 159°
2026-04-19 06:58 52.38752 17.82953 364 ft 7 kts 182°
2026-04-19 06:58 52.38692 17.82936 364 ft 10 kts 185°
2026-04-19 06:58 52.38627 17.82908 364 ft 10 kts 187°
2026-04-19 06:59 52.38563 17.83028 394 ft 25 kts 108°
2026-04-19 06:59 52.38444 17.83622 481 ft 84 kts 104°
2026-04-19 06:59 52.38234 17.84698 579 ft 109 kts 104°
2026-04-19 06:59 52.37996 17.85920 694 ft 116 kts 107°
2026-04-19 07:00 52.37992 17.86969 853 ft 73 kts 20°
2026-04-19 07:00 52.38350 17.86552 800 ft 78 kts 291°
2026-04-19 07:00 52.38549 17.85582 802 ft 98 kts 287°
2026-04-19 07:00 52.38785 17.84489 864 ft 103 kts 287°
2026-04-19 07:01 52.39034 17.83457 956 ft 87 kts 288°
2026-04-19 07:01 52.39000 17.82711 752 ft 53 kts 231°
2026-04-19 07:01 52.38677 17.82664 495 ft 50 kts 152°
2026-04-19 07:01 52.38572 17.83001 367 ft 10 kts 132°
2026-04-19 07:02 52.38570 17.83015 360 ft 0 kts 110°
2026-04-19 07:02 52.38552 17.83103 372 ft 18 kts 113°
2026-04-19 07:02 52.38459 17.83553 452 ft 72 kts 107°
2026-04-19 07:03 52.38281 17.84472 546 ft 94 kts 107°
2026-04-19 07:03 52.38074 17.85519 684 ft 100 kts 107°
2026-04-19 07:03 52.37857 17.86593 845 ft 93 kts 88°
2026-04-19 07:03 52.38247 17.86926 759 ft 75 kts 311°
2026-04-19 07:04 52.38453 17.86127 766 ft 85 kts 286°
2026-04-19 07:04 52.38656 17.85123 815 ft 101 kts 288°
2026-04-19 07:04 52.38878 17.83960 842 ft 112 kts 285°
2026-04-19 07:04 52.39063 17.82820 818 ft 72 kts 253°
2026-04-19 07:05 52.38748 17.82583 634 ft 59 kts 160°
2026-04-19 07:05 52.38575 17.82967 386 ft 29 kts 116°
2026-04-19 07:05 52.38545 17.83139 364 ft 4 kts 119°
2026-04-19 07:05 52.38544 17.83140 363 ft 0 kts 111°
2026-04-19 07:06 52.38526 17.83222 388 ft 29 kts 107°
2026-04-19 07:06 52.38399 17.83886 436 ft 97 kts 107°
2026-04-19 07:06 52.38170 17.85052 593 ft 118 kts 107°
2026-04-19 07:07 52.37900 17.86412 680 ft 131 kts 103°
2026-04-19 07:07 52.38277 17.87387 879 ft 106 kts 16°
2026-04-19 07:07 52.39049 17.87154 956 ft 128 kts 341°
2026-04-19 07:07 52.39977 17.86880 997 ft 139 kts 358°
2026-04-19 07:08 52.40936 17.87002 1151 ft 130 kts 359°
2026-04-19 07:08 52.41603 17.86462 1400 ft 97 kts 285°
2026-04-19 07:08 52.41334 17.85652 1362 ft 93 kts 189°
2026-04-19 07:08 52.40916 17.86271 1325 ft 94 kts 82°
2026-04-19 07:09 52.41414 17.86999 1183 ft 109 kts 15°
2026-04-19 07:09 52.42254 17.87388 1189 ft 133 kts 15°
2026-04-19 07:09 52.43177 17.87871 1250 ft 147 kts 18°
2026-04-19 07:09 52.44156 17.88536 1267 ft 153 kts 20°
2026-04-19 07:10 52.45177 17.89130 1279 ft 159 kts 15°
2026-04-19 07:10 52.46215 17.88983 1436 ft 150 kts 328°
2026-04-19 07:10 52.46815 17.87627 1437 ft 152 kts 279°
2026-04-19 07:10 52.46596 17.85955 1346 ft 156 kts 232°
2026-04-19 07:11 52.45690 17.85139 1472 ft 150 kts 182°
2026-04-19 07:11 52.44722 17.85740 1453 ft 159 kts 135°
2026-04-19 07:11 52.44279 17.87382 1463 ft 160 kts 91°
2026-04-19 07:11 52.44673 17.88990 1587 ft 155 kts 40°
2026-04-19 07:12 52.45645 17.89610 1722 ft 149 kts
2026-04-19 07:12 52.46706 17.89910 1581 ft 166 kts 12°
2026-04-19 07:12 52.47846 17.90450 1530 ft 163 kts 23°
2026-04-19 07:12 52.48764 17.91466 1641 ft 160 kts 33°
2026-04-19 07:13 52.49649 17.92531 1715 ft 160 kts 34°
2026-04-19 07:13 52.50563 17.93577 1761 ft 162 kts 31°
2026-04-19 07:13 52.51519 17.94571 1749 ft 165 kts 28°
2026-04-19 07:13 52.52521 17.95553 1746 ft 166 kts 26°
2026-04-19 07:14 52.53513 17.96495 1793 ft 165 kts 27°
2026-04-19 07:14 52.54537 17.97360 1782 ft 167 kts 25°
2026-04-19 07:14 52.55551 17.98321 1730 ft 169 kts 30°
2026-04-19 07:14 52.56502 17.99390 1772 ft 165 kts 37°
2026-04-19 07:15 52.57190 18.00798 1888 ft 161 kts 59°
2026-04-19 07:15 52.57680 18.02509 1753 ft 171 kts 65°
2026-04-19 07:15 52.58604 18.06070 1816 ft 168 kts 62°
2026-04-19 07:16 52.59111 18.07825 1784 ft 170 kts 62°
2026-04-19 07:16 52.59629 18.09558 1791 ft 170 kts 61°
2026-04-19 07:16 52.60236 18.11276 1654 ft 176 kts 60°
2026-04-19 07:16 52.60789 18.13059 1615 ft 172 kts 61°
2026-04-19 07:17 52.61410 18.14776 1486 ft 178 kts 50°
2026-04-19 07:17 52.62224 18.16280 1399 ft 177 kts 43°
2026-04-19 07:17 52.63196 18.17482 1327 ft 176 kts 25°
2026-04-19 07:17 52.64335 18.18184 1271 ft 174 kts 17°
2026-04-19 07:18 52.65452 18.18855 1305 ft 168 kts 20°
2026-04-19 07:18 52.66560 18.19517 1259 ft 170 kts 17°
2026-04-19 07:18 52.67676 18.20120 1277 ft 167 kts 15°
2026-04-19 07:18 52.68779 18.20706 1294 ft 166 kts 17°
2026-04-19 07:19 52.69744 18.21664 1328 ft 162 kts 41°
2026-04-19 07:19 52.70520 18.22976 1434 ft 159 kts 45°
2026-04-19 07:19 52.71275 18.24306 1465 ft 162 kts 44°
2026-04-19 07:19 52.72104 18.25639 1325 ft 171 kts 38°
2026-04-19 07:20 52.73022 18.26928 1177 ft 176 kts 39°
2026-04-19 07:20 52.74051 18.27897 1194 ft 165 kts 22°
2026-04-19 07:20 52.75095 18.28644 1161 ft 162 kts 21°
2026-04-19 07:20 52.76135 18.29240 1211 ft 156 kts 13°
2026-04-19 07:21 52.77173 18.29699 1289 ft 149 kts 12°
2026-04-19 07:21 52.78179 18.30084 1278 ft 152 kts
2026-04-19 07:21 52.79231 18.30287 1281 ft 153 kts
2026-04-19 07:21 52.80303 18.30404 1253 ft 155 kts 357°
2026-04-19 07:22 52.81352 18.30436 1216 ft 142 kts 12°
2026-04-19 07:22 52.82130 18.31337 788 ft 138 kts 53°
2026-04-19 07:22 52.82621 18.32545 897 ft 117 kts 54°
2026-04-19 07:22 52.83206 18.33117 1201 ft 99 kts 354°
2026-04-19 07:23 52.83602 18.32277 1328 ft 104 kts 260°
2026-04-19 07:23 52.83189 18.31198 1148 ft 118 kts 223°
2026-04-19 07:23 52.82732 18.30401 803 ft 61 kts 211°
2026-04-19 07:23 52.82397 18.30486 744 ft 57 kts 150°
2026-04-19 07:24 52.82154 18.31191 596 ft 79 kts 83°
2026-04-19 07:24 52.82335 18.31827 422 ft 52 kts 61°
2026-04-19 07:24 52.82498 18.32186 352 ft 28 kts 63°
2026-04-19 07:24 52.82614 18.32198 322 ft 17 kts 348°
2026-04-19 07:25 52.82732 18.32045 321 ft 25 kts 323°
2026-04-19 07:25 52.82848 18.31882 291 ft 11 kts 324°
2026-04-19 07:25 52.82905 18.31915 294 ft 12 kts
2026-04-19 07:25 52.82967 18.31863 288 ft 10 kts 288°
2026-04-19 07:26 52.82961 18.31805 283 ft 2 kts 92°
2026-04-19 07:26 52.82964 18.31795 273 ft 3 kts 75°
2026-04-19 07:26 52.82965 18.31795 272 ft 0 kts 76°